Current Version              Previous Version:    01  02  03  04  05  06  07  08  09  10  11  12  13  14  15  16  17  18  19  20  21  22  23  24  25  26  27  28  29  30  
   31  32  33  34  35  36  37  38  39  40  41  42  43  44  45  46  47  48  49  50  51  52  53  54  55  56  57  58  59  60  

[Printable]
813
ASUS44 KFWD 021315
RWRTX
NORTH TEXAS HOURLY WEATHER ROUNDUP
NATIONAL WEATHER SERVICE FORT WORTH TX
800 AM CDT THU OCT 02 2014

NOTE: "FAIR" INDICATES FEW OR NO CLOUDS BELOW 12,000 FEET WITH NO
SIGNIFICANT WEATHER AND/OR OBSTRUCTIONS TO VISIBILITY.

TXZ118-119-021400-
DALLAS/FORT WORTH METROPLEX

CITY           SKY/WX    TMP DP  RH WIND       PRES   REMARKS
DFW AIRPORT    PTCLDY    77  71  82 S10       29.81R
DALLAS LOVE    PTCLDY    78  71  79 S10       29.82R
FTW MEACHAM    CLEAR     78  71  79 S13       29.80R
DAL-EXECUTIVE  CLEAR     78  71  79 S7        29.82R
FTW-ALLIANCE   PTCLDY    77  71  82 S12G21    29.80R
FTW-NAS-JRB    PTCLDY    79  70  74 S10       29.85R
FTW-SPINKS     CLEAR     77  72  83 S7        29.83R
ARLINGTON      CLEAR     76  70  82 S6        29.82R
GRAND PRAIRIE  CLEAR     75  70  83 MISG      29.83R
ADDISON        PTCLDY    77  70  78 S12       29.82R
MESQUITE       CLEAR     75  72  88 SE5       29.83S
LANCASTER      CLEAR     76  70  81 S5        29.84R
$$

TXZ091>094-102>105-117-120-121-131>134-021400-
NORTH CENTRAL TEXAS

CITY           SKY/WX    TMP DP  RH WIND       PRES   REMARKS
SHRMAN/DENISON PTCLDY    75  70  83 S13       29.81R
GAINESVILLE    PTCLDY    74  70  85 SE10      29.82R
BOWIE          PTCLDY    74  67  80 S8        29.80R
BRIDGEPORT     PTCLDY    76  66  71 S9        29.80S
DECATUR        PTCLDY    74  70  88 S13       29.80S
DENTON         PTCLDY    75  71  87 S10       29.81R
MCKINNEY       PTCLDY    77  72  84 S10       29.82R
GREENVILLE     CLEAR     77  70  78 S8        29.84R
ROCKWALL       CLEAR     76  73  88 S9G17     29.82S
TERRELL        CLEAR     78  72  81 S7        29.84R
WAXAHACHIE     CLEAR     75  73  95 SE6       29.84S
CLEBURNE       PTCLDY    75  73  94 S10       29.84R
GRANBURY       CLEAR     78  71  78 SE8       29.82S
$$

TXZ083>090-098>101-113>116-127>130-139>142-154-155-021400-
WESTERN NORTH TEXAS

CITY           SKY/WX    TMP DP  RH WIND       PRES   REMARKS
WICHITA FALLS  PTCLDY    76  67  73 S12       29.75R
WF-KICKAPOO    PTCLDY    74  67  76 S7        29.77R
VERNON         CLEAR     72  64  78 W9        29.77R
ABILENE        PTCLDY    75  68  78 SW15G25   29.84R
ABILENE-DYESS  CLEAR     73  66  78 S14       29.81R
BRECKENRIDGE     N/A     76  66  71 SW9G17    29.80R HAZE
GRAHAM         PTCLDY    76  66  71 S7        29.78R
MINERAL WELLS  CLEAR     73  69  87 SE8       29.79R
STEPHENVILLE   PTCLDY    71  68  90 S6        29.85S
COMANCHE       CLEAR     72  70  93 SE5       29.84R
BROWNWOOD      CLOUDY    72  68  88 SE6       29.84S
COLEMAN        PTCLDY    74  67  79 SW7       29.84S
BRADY          CLEAR     73  72  94 S10       29.85S
$$

TXZ143>147-156>162-174-175-021400-
CENTRAL TEXAS

CITY           SKY/WX    TMP DP  RH WIND       PRES   REMARKS
WACO           MOCLDY    77  73  87 SE10      29.83S
WACO-MCGREGOR  PTCLDY    75  70  83 S9        29.85S
HILLSBORO      CLEAR     76  71  84 S10       29.84R
CORSICANA      MOCLDY    78  73  84 S7        29.85R
MEXIA          CLOUDY    77  74  92 S10       29.84S
HEARNE         PTCLDY    76  75  95 SE7       29.86S FOG
CAMERON        PTCLDY    77  74  91 S6        29.85R FOG
TEMPLE         CLEAR     75  70  83 S14       29.84R
KILLEEN        PTCLDY    75  73  94 SE10      29.84R
KILLEEN-SKYLRK CLOUDY    75  70  83 SE9       29.83R
FORT HOOD      PTCLDY    77  73  88 SE8       29.84R
GATESVILLE     PTCLDY    73  73 100 CALM      29.86S FOG
HAMILTON       MOCLDY    74  74 100 S15       29.85S
LAMPASAS       MOCLDY    76  74  95 CALM      29.85R
$$

TXZ095>097-106>112-122>126-135>138-148>153-164>167-021400-
EAST TEXAS

CITY           SKY/WX    TMP DP  RH WIND       PRES   REMARKS
PARIS          CLOUDY    73  66  78 S7        29.86R
SULPHUR SPRNGS MOCLDY    78  71  81 S7        29.87R
MOUNT PLEASANT CLOUDY   N/A N/A N/A SE5       29.88R
GILMER         MOCLDY    79  75  89 S5        29.89R
MINEOLA        CLOUDY    79  73  83 S5        29.87R
TYLER          CLOUDY    78  73  84 S7        29.87R
LONGVIEW       MOCLDY    78  73  84 S6        29.88R
MARSHALL       PTCLDY    76  74  92 S3        29.91R
ATHENS         CLOUDY    73  72  94 S6        29.86R
PALESTINE      CLOUDY    77  75  95 S7        29.88R
JACKSONVILLE   CLOUDY    77  74  91 S8        29.90R FOG
HENDERSON      CLOUDY    76  75  95 S5        29.89R FOG
NACOGDOCHES    MOCLDY    75  73  94 S5        29.90R
LUFKIN         CLOUDY    79  75  87 SE3       29.90R FOG
$$

SUPPLEMENTAL OBSERVATIONS (CENTRAL)

CITY           SKY/WX    TMP DP  RH WIND       PRES   REMARKS
LAKE TEXOMA      N/A     75  70  83 SE3         N/A
CADDO GRASSLND   N/A     75  70  83 S9          N/A
PAT MAYSE LAKE   N/A     73  70  88 SE10        N/A
GREENVILLE       N/A     77  72  83 S8G16       N/A
CEDAR HILL       N/A     77  72  83 SE9         N/A
PALESTINE        N/A     79  75  89 S5          N/A
LAKE LIMESTONE   N/A     77  72  83 S5          N/A
MCGREGOR         N/A     75  70  83 S6          N/A
TEMPLE           N/A     75  70  83 S9          N/A
$$

SUPPLEMENTAL OBSERVATIONS (WEST)

CITY           SKY/WX    TMP DP  RH WIND       PRES   REMARKS
MILLERS CREEK    N/A     72  61  68 S7          N/A
POSSUM KINGDOM   N/A     75  64  69 W1G12       N/A
LBJ GRASSLAND    N/A     75  68  78 SE9G17      N/A
GRANBURY         N/A     77  70  78 S8          N/A
COMANCHE         N/A     73  68  83 SE6         N/A
HAMBY            N/A     75  66  73 SW16        N/A
IVIE RESERVOIR   N/A     75  68  78 S10         N/A
COLORADO BEND    N/A     75  72  88 S6          N/A
$$

SUPPLEMENTAL OBSERVATIONS (EAST)

CITY           SKY/WX    TMP DP  RH WIND       PRES   REMARKS
TEXARKANA        N/A     75  72  88 SE1         N/A
LINDEN           N/A     75  72  88 S2          N/A
CADDO LAKE       N/A     73  72  94 SE1         N/A
LUFKIN           N/A     77  73  88 MISG        N/A
$$

SUPPLEMENTAL OBSERVATIONS ARE A COLLECTION OF AUTOMATED INSTRUMENTS
THAT ARE MAINTAINED BY A VARIETY OF FEDERAL AND STATE AGENCIES.
CERTAIN ELEMENTS...SUCH AS HUMIDITY VALUES AND SUSTAINED WIND
SPEEDS...MAY BE APPROXIMATED.